Weather in Uthai Thani

Thailand     15°22′08″N   100°02′28″E
temp.,
°C
wind,
m/s
gust,
m/s
humid.,
%
clouds,
%
prec.,
mm/h
press.,
hPa
HPBL,
m
29 may, sun
sun2901:00+27sw226675 0.0 100447
04:00+26sw227453 0.0 100433
07:00+27sw237112 0.0 1005135
10:00+32w464835 0.0 10061235
13:00+35wnw454317 0.0 10031716
16:00+34nw544440 0.1 10011329
19:00+29sw36605 0.8 1003133
22:00+27sw24685 0.0 100582
30 may, mon
mon3001:00+26wsw227184 0.0 100427
04:00+25w1173100 0.0 100311
07:00+26wnw117088 0.0 1005122
10:00+31wnw23535 0.0 10061121
13:00+35wsw23438 0.0 10031793
16:00+35sw554497 0.1 10011355
19:00+29ssw236828 1.1 1003102
22:00+27ese227687 0.0 100550
31 may, tue
tue3101:00+26wsw018050 0.0 100419
04:00+26wsw117899 0.0 100311
07:00+27w117389 0.0 1005115
10:00+32wnw235091 0.0 10051114
13:00+36wsw234194 0.0 10031952
16:00+31wsw7760100 0.5 1002694
19:00+25e5794100 16.8 1003160
22:00+27ssw1182100 1.8 100618
1 june, wed
wed101:00+26s1186100 1.8 100519
04:00+25sw1185100 0.0 100415
07:00+26wnw117899 0.0 100683
10:00+31wsw235838 0.0 10071019
13:00+35sw2346100 0.0 10042007
16:00+32se3558100 0.2 1002141
19:00+30sw2461100 0.2 100390
22:00+28wsw3563100 0.0 1005104
2 june, thu
thu201:00+27sw236872 0.0 100455
04:00+26wsw227299 0.0 100421
07:00+26sw1270100 0.0 100594
10:00+32wnw345181 0.0 10061182
13:00+35wsw354198 0.0 10032210
16:00+33ssw3448100 0.0 1001138
19:00+31wsw245796 0.1 1002136
22:00+28wsw2465100 0.0 100478